{"data":{"norad_id":45415,"intl_designator":"2020-019BH","name":"STARLINK-1316","alt_names":[],"object_type":"PAYLOAD","status":"ACTIVE","operator":null,"country":"US","launch_date":"2020-03-18","launch_site_code":"AFETR","launch_vehicle":null,"mission":null,"orbit_class":"UNKNOWN","rcs_meters":null,"size_class":null,"mass_kg":null,"dimensions":null,"purposes":["comms"],"wikipedia_slug":null,"has_3d_model":false,"image_url":null,"decayed_at":null,"tle_current":{"epoch":"2026-09-20T01:33:55.827072Z","epoch_age_seconds":52093,"freshness":"FRESH","line1":"1 45415U 20019BH  26263.06522948  .00055431  00000+0  10205-2 0  9993","line2":"2 45415  53.1502 293.7195 0005758  31.7150 328.4204 15.48648283359936","mean_motion":15.48648283,"eccentricity":0.0005758,"inclination_deg":53.1502,"raan_deg":293.7195,"arg_perigee_deg":31.715,"mean_anomaly_deg":328.4204,"bstar":0.0010205,"rev_number":35993,"period_min":92.984315148077,"perigee_km":416.76460620277,"apogee_km":424.59412312832,"semimajor_km":6798.8163646655,"source":"CELESTRAK","updated_at":"2026-09-20T09:00:38.235321Z"}}}